SCP
0 0 0 0 0 0 0 0 0 0 0 0 0 0 0 0 0 0 0 0 0 0 0 0 0 0 0 0 0 0 0 0 0 0 0 -0 -0 -0 -0 -0 0 0 0 0 0 0 0 0 0
0 0 0 0 0 0 0 0 0 0 0 0 0 0 0 0 0 0 0 0 0 0 0 0 0 0 0 0 0 0 0 0 0 0 0 0 -0 -0 -0 -0 0 0 0 0 0 0 0 0 0
0 0 0 0 0 0 0 0 0 0 0 0 0 0 0 0 0 0 0 0 0 0 0 0 0 0 0 0 0 0 0 0 0 0 0 0 0 0 0 0 0 0 0 0 0 0 0 0 0
0 0 0 0 0 0 0 0 0 0 0 0 0 0 0 0 0 0 0 0 0 0 0 0 0 0 0 0 0 0 0 0 0 0 0 0 0 0 0 0 0 0 0 0 0 0 0 0 0
0 0 0 0 0 0 0 0 0 0 0 0 0 0 0 0 0 0 0 0 0 0 0 0 0 0 0 0 0 0 0 0 0 0 0 0 0 0 0 0 0 0 0 0 0 0 0 0 0
0 0 0 0 0 0 0 0 0 0 0 0 0 0 0 0 0 0 0 0 0 0 0 0 0 0 1 1 1 0 0 0 0 0 0 0 0 0 0 0 0 0 0 0 0 0 0 0 0
0 0 0 0 0 0 0 0 0 0 0 0 0 0 0 0 0 0 0 0 0 0 0 0 0 0 1 1 1 1 0 0 0 0 0 0 0 0 0 0 0 0 0 0 0 0 0 0 0
0 0 0 0 0 0 0 0 0 0 0 0 0 0 0 0 0 0 0 0 0 0 0 0 0 0 1 1 1 1 1 0 0 0 0 0 0 0 0 0 0 0 0 0 0 1 0 0 0
0 0 0 0 0 0 0 0 0 0 0 0 0 0 0 0 0 0 0 0 0 0 0 0 0 0 0 1 1 1 1 1 0 0 0 0 0 0 0 0 0 0 0 0 0 0 1 1 1
0 0 0 0 0 0 0 0 0 0 0 0 0 0 0 0 0 0 0 0 0 0 0 0 0 0 0 1 1 1 1 1 1 1 1 0 0 0 0 0 0 0 0 0 0 0 1 1 1
0 0 0 0 0 0 0 0 0 0 0 0 0 0 0 0 0 0 0 0 0 0 0 0 0 0 0 0 1 1 1 1 1 1 1 1 1 1 0 0 0 0 0 0 0 0 1 1 1
0 0 0 0 0 0 0 0 0 0 0 0 0 0 0 0 0 0 0 0 0 0 0 0 0 0 0 0 0 1 1 1 1 1 1 1 1 1 0 0 0 0 0 0 0 0 1 1 1
0 0 0 0 0 0 0 0 0 0 0 0 0 0 0 0 0 0 0 0 0 0 0 0 0 0 0 0 0 0 1 1 1 1 1 1 1 0 0 0 0 0 0 0 0 1 1 2 2
0 0 0 0 0 0 0 0 0 0 0 0 0 0 0 0 0 0 0 0 0 0 0 0 0 0 0 0 0 0 0 0 1 1 1 1 0 0 0 0 0 0 0 0 1 1 2 2 3
0 0 0 0 0 0 0 0 0 0 0 0 0 0 0 0 0 0 0 0 0 0 0 0 0 0 0 0 0 0 0 0 0 0 0 0 0 0 0 0 0 0 0 1 1 2 2 3 3
0 0 0 0 0 0 0 0 0 0 0 0 0 0 0 0 0 0 0 0 0 0 0 0 0 0 0 0 0 0 0 0 0 0 0 0 0 0 0 0 0 0 0 1 1 2 3 3 4
0 0 0 0 0 0 0 0 0 0 0 0 0 0 0 0 0 0 0 0 0 0 0 0 0 0 0 0 0 0 0 0 0 0 0 0 0 0 0 0 0 0 0 0 1 1 2 3 3
0 0 0 0 0 0 0 0 0 0 0 0 0 0 0 0 0 0 0 0 0 0 0 0 0 0 0 0 0 0 0 0 0 0 0 0 0 0 0 0 0 0 0 0 1 1 1 2 2
0 0 0 0 0 0 0 0 0 0 0 0 0 0 0 0 0 0 0 0 0 0 0 0 0 0 0 0 0 0 0 0 0 0 0 0 0 0 0 0 0 0 0 0 0 1 1 1 1
0 0 0 0 0 0 0 0 0 0 0 0 0 0 0 0 0 0 0 0 0 0 0 0 0 0 0 0 0 0 0 0 0 0 0 0 0 0 0 0 0 0 0 0 0 0 0 0 1
0 0 0 0 0 0 0 0 0 0 0 0 0 0 0 0 0 0 0 0 0 0 0 0 0 0 0 0 0 0 0 0 0 0 0 0 0 0 0 0 0 0 0 0 0 0 0 0 0
0 0 0 0 0 0 0 0 0 0 0 0 0 0 0 0 0 0 0 0 0 0 0 0 0 0 0 0 0 0 0 0 0 0 0 0 0 0 0 0 0 0 0 0 0 0 0 0 0
0 0 0 0 0 0 0 0 0 0 0 0 0 0 0 0 0 0 0 0 0 0 0 0 0 0 0 0 0 0 0 0 0 0 0 0 0 0 0 0 0 0 0 0 0 0 0 0 0
0 0 0 0 0 0 0 0 0 0 0 0 0 0 0 0 0 0 0 0 0 0 0 0 0 0 0 0 0 0 0 0 0 0 0 0 0 0 0 0 0 0 0 0 0 0 0 0 0
0 0 0 0 0 0 0 0 0 0 0 0 0 0 0 0 0 0 0 0 0 0 0 0 0 0 0 0 0 0 0 0 0 0 0 0 0 0 0 0 0 0 0 0 0 0 0 0 0
0 0 0 0 0 0 0 0 0 0 0 0 0 0 0 0 0 0 0 0 0 0 0 0 0 0 0 0 0 0 0 0 0 0 0 0 0 0 0 0 0 0 0 0 0 0 0 0 0
0 0 0 0 0 0 0 0 0 0 0 0 0 0 0 0 0 0 0 0 0 0 0 0 0 0 0 0 0 0 0 0 0 0 0 0 0 0 0 0 0 0 0 0 0 0 0 0 0
0 0 0 0 0 0 0 0 0 0 0 0 0 0 0 0 0 0 0 0 0 0 0 0 0 0 0 0 0 0 0 0 0 0 0 0 0 0 0 0 0 0 0 0 0 0 0 0 0
0 0 0 0 0 0 0 0 0 0 0 0 0 0 0 0 0 0 0 0 0 0 0 0 0 0 0 0 0 0 0 0 0 0 0 0 0 0 0 0 0 0 0 0 0 0 0 0 0
0 0 0 0 0 0 0 0 0 0 0 0 0 0 0 0 0 0 0 0 0 0 0 0 0 0 0 0 0 0 0 0 0 0 0 0 0 0 0 0 0 0 0 0 0 0 0 0 0
Wind_Speed
1 2 3 4 5 5 4 3 2 2 2 1 2 3 3 2 3 3 4 4 3 2 4 11 12 12 11 11 10 10 9 8 8 8 7 7 7 7 7 7 7 7 7 7 7 7 8 8 8
1 2 4 4 5 5 5 3 3 1 2 1 1 1 2 2 2 2 2 3 4 2 6 8 12 12 12 12 11 11 10 9 9 8 7 6 6 7 7 6 6 7 6 7 7 7 7 7 8
1 2 4 4 4 2 3 3 2 2 3 2 2 1 2 1 1 1 3 7 4 3 6 7 11 12 12 12 11 11 10 10 9 8 7 6 5 5 5 5 5 5 5 5 6 7 7 8 8
3 3 3 5 5 2 3 2 5 4 2 1 2 3 2 1 1 2 6 6 4 4 6 7 10 11 11 11 11 11 11 10 9 9 8 7 5 5 5 3 2 2 3 5 6 7 8 8 8
2 3 4 5 5 3 4 6 5 5 2 1 3 4 3 4 1 3 5 5 4 3 4 5 9 10 10 11 11 11 10 10 9 8 7 7 7 7 6 2 1 2 3 5 6 7 8 9 10
2 3 5 5 4 5 5 3 5 6 3 2 4 4 2 5 3 1 4 3 2 2 3 4 7 8 10 11 11 11 11 10 9 8 7 7 8 7 6 4 3 1 3 5 6 7 8 9 10
3 3 4 4 5 4 1 2 5 6 6 3 2 4 2 5 4 2 2 3 3 2 1 4 6 9 11 10 11 11 11 10 10 9 8 6 6 6 5 3 2 1 3 5 6 7 8 9 10
2 3 4 4 5 3 2 3 2 5 5 2 3 5 2 4 4 3 1 1 3 3 2 2 5 7 8 10 11 10 9 9 9 9 7 3 3 4 1 3 1 3 4 6 7 7 8 8 8
4 5 5 3 4 2 2 5 4 2 4 3 4 5 3 2 3 4 4 4 1 1 1 2 4 5 7 7 6 9 9 9 8 10 9 7 9 9 7 7 1 6 7 7 8 8 7 7 8
4 5 4 2 3 5 7 8 8 6 8 8 8 8 5 5 6 7 7 5 3 2 2 3 3 4 5 5 5 6 6 7 8 7 8 7 7 6 6 2 3 8 8 9 10 9 8 9 8
5 6 4 4 6 6 8 9 7 8 11 12 13 11 4 7 8 9 7 5 3 2 1 3 3 3 4 4 3 3 3 4 6 7 7 6 6 5 5 4 5 7 8 9 8 10 9 9 6
5 7 7 7 4 6 10 10 10 11 13 12 10 10 8 9 10 9 8 5 4 2 0 2 2 1 0 2 3 4 4 4 4 5 6 5 4 4 4 4 4 4 4 5 7 7 9 9 8
8 7 7 8 9 11 12 14 12 13 12 10 9 8 9 10 9 8 7 6 5 4 2 1 1 2 3 2 2 3 4 4 5 4 5 6 5 5 4 4 4 5 4 5 6 8 9 9 8
4 7 10 10 10 5 7 8 5 7 4 6 7 9 9 9 9 8 8 8 8 6 4 3 3 3 3 3 2 2 2 3 4 5 6 6 5 5 5 5 4 5 5 5 6 8 8 7 5
5 8 10 4 2 2 6 9 5 2 8 12 12 11 9 9 8 10 10 9 9 7 6 6 4 4 4 3 2 2 2 3 3 4 6 7 7 6 6 6 5 5 5 6 6 7 6 4 4
5 6 5 2 3 3 7 9 5 9 14 15 13 11 10 9 8 9 9 9 9 8 8 7 5 6 5 4 4 2 2 3 3 4 5 7 7 7 6 6 6 6 6 6 6 5 6 6 6
5 6 6 4 3 5 7 11 12 15 12 11 13 14 15 15 15 10 8 9 10 10 9 8 7 6 5 4 4 3 3 4 3 4 4 5 6 6 6 5 5 6 6 6 6 6 6 6 6
6 8 7 8 5 7 9 13 13 13 10 13 15 17 18 20 20 17 12 8 7 8 8 8 7 7 5 4 4 3 4 4 4 4 4 5 5 5 5 4 5 5 5 5 5 6 5 5 5
6 8 12 10 4 8 12 14 10 9 12 15 16 17 19 20 21 20 17 11 6 7 8 9 9 8 6 5 5 5 4 4 4 3 4 4 4 4 4 3 3 3 3 3 4 3 4 3 2
7 11 11 6 3 8 11 10 6 11 14 14 16 18 20 21 22 22 20 15 10 9 10 10 11 10 9 6 5 4 4 3 2 3 3 3 3 3 3 4 3 3 2 3 3 4 3 2 3
8 8 9 13 14 5 7 4 12 10 14 15 17 17 20 21 22 22 22 21 16 11 11 10 11 10 10 8 5 4 4 4 5 5 4 3 3 3 3 4 4 4 4 3 3 3 4 3 3
6 5 11 14 13 6 4 5 9 8 11 15 17 18 20 20 21 21 21 22 20 16 12 12 12 11 10 9 8 9 7 7 7 5 4 4 4 4 3 3 4 4 4 4 4 3 2 3 3
7 11 13 11 8 8 4 7 5 6 6 13 16 17 18 19 19 20 20 20 19 19 15 12 13 13 11 10 9 9 9 7 5 5 6 5 4 4 4 4 4 5 4 5 5 4 4 3 3
8 12 8 4 5 6 3 5 4 5 7 11 15 16 17 18 18 18 19 19 18 19 17 15 14 14 12 11 10 10 10 8 8 8 7 6 4 4 4 4 4 5 4 5 5 5 6 5 5
9 9 6 4 4 2 2 8 2 9 9 11 14 16 17 17 17 18 20 21 20 21 20 18 17 15 14 13 12 11 10 10 10 9 8 7 5 5 4 3 4 4 4 5 5 6 6 7 7
5 5 5 7 8 9 6 7 6 9 6 9 13 15 16 17 18 19 20 20 20 20 20 20 20 18 16 15 14 12 11 8 8 8 7 6 5 3 2 3 4 4 5 5 5 5 7 6 7
2 2 3 7 11 10 7 3 7 5 7 14 18 20 21 20 20 20 20 20 20 20 20 21 21 20 17 15 14 12 11 9 7 5 4 3 2 1 1 2 4 5 5 5 6 5 7 6 7
3 2 3 5 9 11 13 10 2 5 16 24 27 25 21 19 18 19 19 19 19 19 19 19 20 21 19 16 12 8 8 6 5 3 3 2 2 2 3 4 5 6 6 7 7 6 6 7 7
4 1 3 5 7 9 12 8 9 10 19 24 24 21 20 19 20 20 20 19 18 17 17 17 18 19 17 13 8 6 5 4 4 4 3 2 3 3 4 5 6 7 8 8 8 9 8 8 8
2 1 3 7 10 10 13 12 7 15 23 23 23 22 21 21 21 23 23 21 18 16 15 15 14 15 15 12 6 1 2 3 3 3 3 3 3 4 4 5 6 6 7 7 8 8 8 8 8
Wind_Direction
125 202 239 249 238 225 179 147 209 188 212 347 335 290 304 338 328 39 77 44 347 351 168 175 190 191 194 197 200 206 212 214 221 226 233 236 236 239 231 224 221 224 227 227 225 220 213 205 196
292 271 249 255 253 209 159 160 196 201 12 2 137 207 223 109 47 53 133 9 314 253 183 188 175 192 197 200 203 210 212 221 231 231 228 245 248 256 247 232 226 231 239 238 232 224 216 206 196
184 282 278 261 254 252 121 102 60 333 309 247 188 216 294 126 135 156 21 337 289 205 190 181 178 195 200 204 206 211 215 224 232 234 226 245 262 270 256 243 242 244 252 249 233 227 222 211 199
240 234 252 261 255 296 312 16 343 307 151 193 245 200 197 175 287 348 343 319 262 198 189 179 192 201 205 209 212 215 220 227 231 238 220 228 254 277 282 282 279 273 266 254 240 232 226 215 202
239 261 252 249 266 290 292 311 303 281 228 182 249 262 221 162 235 318 339 327 274 220 202 188 193 209 210 214 218 221 226 228 233 246 223 224 242 262 274 260 321 307 279 264 255 244 236 220 205
202 247 254 258 267 290 286 284 287 272 251 209 236 261 231 139 169 36 1 354 328 284 236 211 194 223 221 216 219 222 229 228 232 248 247 238 241 254 262 252 248 276 301 284 270 258 246 233 215
226 243 271 284 289 284 325 326 283 295 269 250 240 262 226 157 131 108 55 39 44 41 241 235 214 210 216 223 223 222 226 229 227 236 249 259 259 263 281 314 311 328 356 333 295 267 250 241 229
242 244 244 254 268 271 355 331 294 298 314 45 249 264 311 96 141 160 130 68 64 56 44 258 232 230 222 212 206 220 226 231 229 226 231 249 268 250 235 253 31 346 331 331 325 290 255 243 239
230 243 247 243 246 248 341 332 339 283 278 245 243 278 348 105 187 208 222 215 189 85 39 337 275 245 237 235 208 211 218 225 235 224 212 224 245 242 226 244 295 292 293 297 301 309 285 251 230
223 247 257 264 266 298 317 315 316 283 272 267 256 243 231 223 220 230 245 257 267 305 358 344 309 271 245 238 235 232 224 217 224 232 219 227 239 250 266 260 258 274 278 275 269 275 277 248 231
232 256 293 275 275 288 295 300 293 284 284 289 297 306 254 233 233 237 243 252 269 295 339 348 339 295 246 220 230 239 236 230 230 234 234 234 240 241 245 250 226 239 242 252 240 239 238 235 231
246 256 262 276 282 282 289 292 286 269 277 305 306 300 279 247 238 234 235 234 224 228 276 16 19 37 169 213 204 223 227 228 231 227 236 235 237 246 249 248 253 252 244 249 252 246 237 239 235
246 273 270 272 282 283 282 277 282 277 290 301 295 289 281 267 248 235 236 224 217 212 188 124 74 90 113 143 181 215 223 233 230 232 230 234 238 241 240 244 241 248 252 246 243 238 232 231 230
283 275 281 286 288 270 275 282 264 270 322 320 318 313 306 286 260 238 224 223 219 214 201 186 162 132 138 155 172 191 224 229 246 238 236 234 241 242 242 247 246 251 251 252 246 241 235 227 209
281 284 283 253 278 290 284 275 231 329 334 328 332 328 321 301 273 252 240 234 228 218 212 206 196 191 178 167 168 192 213 235 242 243 240 232 234 237 236 244 245 246 247 247 244 242 240 221 195
253 257 267 123 354 2 303 296 349 6 345 346 355 360 357 348 312 275 255 245 236 222 218 212 211 216 206 201 202 206 224 231 235 240 240 236 233 233 236 242 247 247 245 241 233 223 217 212 204
236 280 305 330 46 349 321 301 328 3 6 25 35 33 29 25 12 343 288 254 241 232 226 221 220 225 217 210 214 221 223 228 231 231 235 231 232 232 236 245 252 245 242 239 234 221 215 211 204
325 315 311 315 347 329 306 298 334 26 47 52 45 40 36 33 23 10 349 306 269 253 246 239 230 233 221 216 216 212 222 224 227 225 218 218 216 223 236 241 248 250 243 239 236 222 216 221 216
312 299 301 309 337 314 300 305 349 61 56 50 45 39 34 30 27 23 14 355 307 264 249 245 243 233 229 226 225 221 219 216 213 213 214 218 213 212 223 232 234 242 244 239 232 208 200 200 212
291 295 305 314 321 310 306 305 81 82 61 50 43 36 30 22 21 20 17 10 337 292 263 250 246 240 234 233 233 234 221 218 205 192 196 209 206 200 212 226 224 224 226 214 207 198 191 173 198
303 305 320 315 319 277 295 239 138 97 70 52 41 32 28 21 16 13 10 8 355 322 284 267 257 248 238 229 218 205 202 207 204 201 194 196 202 193 200 215 217 211 214 206 201 209 209 193 183
317 347 311 305 308 300 331 281 161 121 70 41 31 26 22 19 15 12 8 4 358 343 313 286 276 261 244 231 228 224 222 221 219 212 203 202 207 207 206 215 218 214 213 206 200 202 215 208 196
319 312 295 294 282 271 223 247 182 124 56 30 24 21 19 16 12 9 7 360 357 352 336 306 289 276 260 246 240 236 234 235 225 217 219 223 210 212 214 224 224 222 220 216 213 204 209 218 218
310 298 277 220 237 237 173 256 234 85 51 25 19 16 14 10 6 5 2 358 355 353 346 328 301 285 273 259 247 238 234 227 223 225 226 224 212 202 199 217 224 225 224 219 220 221 223 226 231
348 333 313 288 255 257 158 266 243 109 62 30 14 9 6 4 2 0 358 355 352 349 345 336 320 297 279 266 256 247 241 235 231 229 227 226 216 203 198 223 237 235 232 233 231 231 231 233 236
347 340 338 313 303 303 279 261 121 119 68 17 9 3 360 359 358 355 352 348 345 344 342 338 328 311 288 269 259 256 251 246 243 234 227 221 218 203 199 248 262 263 259 252 245 246 240 238 237
328 44 342 288 284 282 269 253 140 138 14 360 357 358 357 355 350 346 341 339 338 338 339 337 329 316 298 275 261 257 254 249 249 241 228 207 172 134 309 301 291 286 280 274 268 257 252 251 248
12 3 290 281 299 296 298 293 302 48 2 357 353 349 344 340 337 335 331 331 332 332 333 335 333 322 307 289 268 258 254 242 221 195 173 132 89 38 343 324 308 297 290 284 277 272 267 263 257
333 302 299 284 279 290 298 323 62 19 357 348 341 338 333 329 329 327 325 324 324 325 330 335 338 334 325 308 275 239 226 209 184 148 118 74 46 18 345 326 309 297 291 284 276 269 269 265 263
295 331 302 296 292 275 284 295 81 352 345 340 333 329 326 323 322 321 320 319 320 322 325 332 338 341 343 340 331 297 181 165 139 107 88 61 35 14 349 323 308 301 292 284 276 272 268 265 265